Regional Weather Roundup
Issued by NWS

Home | Current Version | Previous Version | Text Only | Print | Product List | Glossary On
Versions: 1 2 3 4 5 6 7 8 9 10 11 12 13 14 15 16 17 18 19 20 21 22 23 24 25 26 27 28 29 30 31 32 33 34 35 36 37 38 39 40 41 42 43 44 45 46 47 48 49 50
000
ASUS43 KMKX 200511
RWRWI

WISCONSIN REGIONAL WEATHER ROUNDUP
NATIONAL WEATHER SERVICE MILWAUKEE/SULLIVAN WI
1200 AM CDT WED AUG 20 2014

NOTE: "FAIR" INDICATES FEW OR NO CLOUDS BELOW 12,000 FEET WITH NO
SIGNIFICANT WEATHER AND/OR OBSTRUCTIONS TO VISIBILITY.

WIZ001-002-006>008-014>016-023>028-200600-
NORTHWEST WISCONSIN

CITY           SKY/WX    TMP DP  RH WIND       PRES   REMARKS
SUPERIOR ARPT  CLOUDY    62  60  95 E3        29.81S
ASHLAND        CLOUDY    59  58  96 NE3       29.83R
HAYWARD        CLOUDY    59  59 100 CALM      29.83R
SIREN          CLEAR     63  62  97 CALM      29.82S
RICE LAKE      PTCLDY    64  62  93 N5        29.82S
LADYSMITH      CLEAR     63  61  95 N6        29.83R
EAU CLAIRE     PTCLDY    64  64 100 N3        29.78S
MENOMONIE      CLEAR     66  63  90 CALM      29.80R
NEW RICHMOND   CLEAR     64  64  99 CALM      29.81R
OSCEOLA        CLEAR     63  63 100 CALM      29.83R
$$

WIZ003>005-009-010-017-018-200600-
NORTH CENTRAL WISCONSIN

CITY           SKY/WX    TMP DP  RH WIND       PRES   REMARKS
WOODRUFF       CLOUDY    62  59  89 NW6       29.80S
RHINELANDER    CLOUDY    61  58  90 N3        29.81R
EAGLE RIVER    CLOUDY    59  58  97 NW3       29.79S
LAND O LAKES   CLOUDY    59  58  96 NW5       29.80S
PHILLIPS       MOCLDY    60  58  95 N5        29.81R
TOMAHAWK       PTCLDY    55  54  95 CALM      29.81R FOG
MEDFORD        FOG       58  58  99 CALM      29.80S VSB 1/4
MERRILL        CLOUDY    59  59 100 CALM      29.80R
$$

WIZ029-030-035-036-043>047-200600-
CENTRAL WISCONSIN

CITY           SKY/WX    TMP DP  RH WIND       PRES   REMARKS
WAUSAU         PTCLDY    63  61  93 CALM      29.77R
MOSINEE        PTCLDY    61  61 100 NW6       29.80R
MARSHFIELD     PTCLDY    63  61  93 W5        29.79R
STEVENS POINT  CLEAR     62  61  96 CALM      29.79R
WAUPACA        CLEAR     66  64  91 CALM      29.78R
WAUTOMA        CLEAR     62  61  97 CALM      29.79R
WISC RAPIDS    CLEAR     63  62  97 CALM      29.80R
CAMP DOUGLAS   FOG       59  59 100 CALM      29.79S VSB 1/2
$$

WIZ011>013-019>022-031-037>040-048>050-200600-
NORTHEAST WISCONSIN

CITY           SKY/WX    TMP DP  RH WIND       PRES   REMARKS
ANTIGO         CLEAR     58  58  99 NW5       29.79S
STURGEON BAY   PTCLDY    64  61  88 NW7       29.75R
GREEN BAY      PTCLDY    64  63  96 NW6       29.76R
MANITOWOC      CLEAR     65  63  93 W5        29.75R
APPLETON       PTCLDY    63  61  94 W7        29.77R
CLINTONVILLE   CLEAR     63  63 100 NW3       29.77R
OSHKOSH        CLEAR     66  63  90 CALM      29.76S
$$

WIZ032>034-041-042-053>061-200600-
SOUTHWEST WISCONSIN

CITY           SKY/WX    TMP DP  RH WIND       PRES   REMARKS
LA CROSSE      PTCLDY    68  64  87 E3        29.78R
SPARTA         CLEAR     61  60  96 CALM      29.80R
VIROQUA        FAIR      63  63 100 CALM      29.81S
BOSCOBEL       FOG       64  62  93 CALM      29.80R VSB 3/4
PRAIRIE DU CHI PTCLDY    65  63  91 E3        29.80R
PLATTEVILLE    FAIR      67  64  87 CALM      29.82S
$$

WIZ056-057-062-063-064-067-068-200600-
SOUTH CENTRAL WISCONSIN

CITY           SKY/WX    TMP DP  RH WIND       PRES   REMARKS
BARABOO/DELLS  CLEAR     63  60  90 CALM      29.80R
LONE ROCK      CLEAR     67  62  84 CALM      29.80R
WATERTOWN      PTCLDY    66  65  96 CALM      29.78S
MADISON        CLEAR     65  62  90 CALM      29.79R
MIDDLETON      FAIR      64  64 100 CALM      29.80S
MONROE         CLEAR     68  63  83 W9        29.80S
JANESVILLE     MOCLDY    68  64  88 CALM      29.78S
$$

WIZ051-052-058>065-066-070>072-200600-
SOUTHEAST WISCONSIN

CITY           SKY/WX    TMP DP  RH WIND       PRES   REMARKS
MILWAUKEE      CLEAR     68  65  90 CALM      29.77R
WAUKESHA       MOCLDY    64  61  88 W5        29.79S
MILWAUKEE/TIMM CLEAR     66  61  82 CALM      29.78R
RACINE         CLEAR     68  66  93 W6        29.79R
BURLINGTON     PTCLDY    62  61  97 CALM      29.78S
KENOSHA        CLEAR     64  62  93 CALM      29.78R
FOND DU LAC    CLEAR     65  61  87 SW3       29.77S
SHEBOYGAN      CLEAR     63  61  93 W5        29.76R
WEST BEND      CLEAR     64  59  82 CALM      29.77S
JUNEAU         MOCLDY    66  38  35 CALM      29.79R
$$

LSZ147-162-200600-
LAKE SUPERIOR

STATION/POSITION TIME  TEMP    WIND        PRES    WAVE
                       AIR SEA DIR/SP/G            HT/PER
                 (UTC) (F)     (DEG/KT/KT) (MB)    (FT/S)
W MID LAKE BUOY  0450   57 56  360/  8/  8 1009.0R   2/ 4
DEVILS ISLAND    0500   60      60/  4/  5 1009.8S
PORT WING        0440   62      70/  3/  6 1009.8R
SAXON HARBOR     0400   60     350/  4/  4 1009.8R
$$

LMZ867-665-643>646-200600-
LAKE MICHIGAN

STATION/POSITION TIME  TEMP    WIND        PRES    WAVE
                       AIR SEA DIR/SP/G            HT/PER
                 (UTC) (F)     (DEG/KT/KT) (MB)    (FT/S)
N MID LAKE BUOY  0450   63 62  290/  4/  6 1005.5R   1/ 5
NORTHPORT PIER   0400   65     320/ 10/ 13 1006.1S
SISTER BAY       0426   65     350/  8/  9   N/A
KEWAUNEE LAKESHO 0400   65     310/  2/  3 1005.9R
SHEBOYGAN LAKESH 0500   69 65  260/  6/  7 1007.4R
ATWATER BUOY     0500   68     220/  2     1009.2R
MILWAUKEE LAKESH 0400   70     180/  3/  4   N/A
S MID LAKE BUOY  0450   67 66  260/  2/  4 1007.7R   1/ 4
KENOSHA   LAKESH 0500   72     260/  6/  7 1008.1R
$$

TC  - TEMPERATURE IN CELSIUS
VSB - VISIBILITY IN STATUTE MILES
WCI - WIND CHILL INDEX
HX  - HEAT INDEX




USA.gov is the U.S. government's official web portal to all federal, state and local government web resources and services.